Glasgow, United Kingdom

7:08 AM BST on August 26, 2016 (GMT +0100)
Glasgow

Weather History for EGPF - May, 2013

Change the Weather History Date:

Thursday, May 9, 2013

  Actual Average Record
Temperature  
Mean Temperature 47 °F -  
Max Temperature 53 °F 58 °F 75 °F (2000)
Min Temperature 41 °F 44 °F 32 °F (1997)
Degree Days  
Heating Degree Days 18    
Moisture  
Dew Point 41 °F    
Average Humidity 77    
Maximum Humidity 93    
Minimum Humidity 62    
Precipitation  
Precipitation 0.00 in - - ()
Sea Level Pressure  
Sea Level Pressure 29.42 in    
Wind  
Wind Speed 10 mph ()    
Max Wind Speed 22 mph    
Max Gust Speed 31 mph    
Visibility 6.2 miles    
Events Rain    
Averages and records for this station are not official NWS values.
T = Trace of Precipitation, MM = Missing Value Source: Averaged Metar Reports

Daily Weather History Graph

Daily Weather History Graph

Search for Another Location

Airport or City:

Trip Planner

Search our weather history database for the weather conditions in past years. The results will help you decide how hot, cold, wet, or windy it might be!

Date:

Astronomy

May. 09, 2013 Rise Set
Actual Time 5:17 AM BST 9:12 PM BST
Civil Twilight 4:29 AM BST 10:00 PM BST
Nautical Twilight 3:21 AM BST 11:09 PM BST
Astronomical Twilight 1:46 AM BST 12:41 AM BST
Moon 5:01 AM BST (5/9) 8:51 PM BST (5/9)
Length of Visible Light 17h 30m
Length of Day
15h 55m
Waning Crescent, 0% of the Moon is Illuminated
May 9
Waning Crescent
May 10
New
May 18
First Quarter
May 25
Full
May 31
Last Quarter

Hourly Weather History & Observations

Time (BST) Temp. Windchill Dew Point Humidity Pressure Visibility Wind Dir Wind Speed Gust Speed Precip Events Conditions
12:20 AM 50.0 °F - 42.8 °F 76% 29.50 in 6.2 mi South 10.4 mph - N/A   Mostly Cloudy
12:50 AM 48.2 °F - 41.0 °F 76% 29.50 in 6.2 mi South 12.7 mph - N/A   Mostly Cloudy
1:20 AM 48.2 °F - 41.0 °F 76% 29.50 in 6.2 mi South 10.4 mph - N/A   Scattered Clouds
1:50 AM 46.4 °F 43.5 °F 39.2 °F 76% 29.50 in 6.2 mi SE 5.8 mph - N/A   Partly Cloudy
2:20 AM 46.4 °F 43.5 °F 39.2 °F 76% 29.50 in 6.2 mi Variable 5.8 mph - N/A   Partly Cloudy
2:50 AM 46.4 °F 43.5 °F 39.2 °F 76% 29.50 in 6.2 mi East 5.8 mph - N/A   Overcast
3:20 AM 44.6 °F 41.4 °F 39.2 °F 81% 29.50 in 6.2 mi SE 5.8 mph - N/A   Partly Cloudy
3:50 AM 44.6 °F 41.4 °F 39.2 °F 81% 29.50 in 6.2 mi ESE 5.8 mph - N/A   Partly Cloudy
4:20 AM 42.8 °F 39.3 °F 39.2 °F 87% 29.50 in - SE 5.8 mph - N/A   Clear
4:50 AM 42.8 °F 39.3 °F 39.2 °F 87% 29.50 in 6.2 mi SE 5.8 mph - N/A   Partly Cloudy
5:20 AM 41.0 °F 37.1 °F 37.4 °F 87% 29.50 in 6.2 mi East 5.8 mph - N/A   Partly Cloudy
5:50 AM 42.8 °F 39.3 °F 39.2 °F 87% 29.50 in 6.2 mi East 5.8 mph - N/A   Mostly Cloudy
6:20 AM 46.4 °F 42.9 °F 39.2 °F 76% 29.47 in 6.2 mi ESE 6.9 mph - N/A   Mostly Cloudy
6:50 AM 46.4 °F 42.4 °F 39.2 °F 76% 29.47 in 6.2 mi ESE 8.1 mph - N/A   Mostly Cloudy
7:20 AM 48.2 °F - 39.2 °F 71% 29.47 in 6.2 mi SE 10.4 mph - N/A   Scattered Clouds
7:50 AM 48.2 °F - 41.0 °F 76% 29.47 in 6.2 mi SSE 11.5 mph - N/A   Mostly Cloudy
8:20 AM 48.2 °F - 39.2 °F 71% 29.47 in 6.2 mi SE 15.0 mph - N/A   Mostly Cloudy
8:50 AM 48.2 °F - 39.2 °F 71% 29.47 in 6.2 mi SE 15.0 mph - N/A   Mostly Cloudy
9:20 AM 50.0 °F - 41.0 °F 71% 29.47 in 6.2 mi SE 13.8 mph - N/A   Mostly Cloudy
9:50 AM 50.0 °F - 39.2 °F 66% 29.44 in 6.2 mi SE 16.1 mph - N/A   Mostly Cloudy
10:20 AM 50.0 °F - 39.2 °F 66% 29.44 in 6.2 mi SSE 19.6 mph - N/A Rain Light Rain
10:50 AM 50.0 °F - 39.2 °F 66% 29.44 in 6.2 mi SE 18.4 mph 31.1 mph N/A   Mostly Cloudy
11:20 AM 50.0 °F - 41.0 °F 71% 29.44 in 6.2 mi SE 17.3 mph - N/A   Mostly Cloudy
11:50 AM 50.0 °F - 39.2 °F 66% 29.42 in 6.2 mi SE 18.4 mph - N/A   Mostly Cloudy
12:20 PM 50.0 °F - 39.2 °F 66% 29.42 in 6.2 mi SE 21.9 mph - N/A   Mostly Cloudy
12:50 PM 51.8 °F - 41.0 °F 67% 29.42 in 6.2 mi SE 19.6 mph - N/A   Mostly Cloudy
1:20 PM 51.8 °F - 41.0 °F 67% 29.42 in 6.2 mi ESE 17.3 mph - N/A   Mostly Cloudy
1:50 PM 51.8 °F - 41.0 °F 67% 29.39 in 6.2 mi ESE 16.1 mph - N/A   Mostly Cloudy
2:20 PM 53.6 °F - 41.0 °F 62% 29.39 in 6.2 mi ESE 17.3 mph - N/A   Mostly Cloudy
2:50 PM 51.8 °F - 39.2 °F 62% 29.39 in 6.2 mi ESE 18.4 mph - N/A   Mostly Cloudy
3:20 PM 51.8 °F - 41.0 °F 67% 29.36 in 6.2 mi East 18.4 mph - N/A   Mostly Cloudy
3:50 PM 51.8 °F - 41.0 °F 67% 29.36 in 6.2 mi ESE 17.3 mph 28.8 mph N/A Rain Light Rain
4:20 PM 50.0 °F - 42.8 °F 76% 29.36 in 6.2 mi ESE 16.1 mph - N/A Rain Light Rain
4:50 PM 50.0 °F - 42.8 °F 76% 29.33 in 6.2 mi East 12.7 mph - N/A Rain Light Rain
5:20 PM 50.0 °F - 42.8 °F 76% 29.33 in 6.2 mi East 12.7 mph - N/A Rain Light Rain
5:50 PM 48.2 °F - 42.8 °F 82% 29.33 in 6.2 mi East 12.7 mph - N/A Rain Light Rain
6:20 PM 48.2 °F - 42.8 °F 82% 29.33 in 6.2 mi ENE 12.7 mph - N/A Rain Light Rain
6:50 PM 48.2 °F - 42.8 °F 82% 29.33 in 6.2 mi ENE 12.7 mph - N/A Rain Light Rain
7:20 PM 48.2 °F - 44.6 °F 87% 29.33 in 6.2 mi ENE 11.5 mph - N/A Rain Light Rain
7:50 PM 48.2 °F - 44.6 °F 87% 29.33 in 6.2 mi ENE 12.7 mph - N/A Rain Light Rain
8:20 PM 46.4 °F 41.1 °F 44.6 °F 93% 29.36 in 6.2 mi NE 11.5 mph - N/A Rain Light Rain
8:50 PM 46.4 °F 41.5 °F 42.8 °F 87% 29.36 in 6.2 mi NE 10.4 mph - N/A Rain Light Rain
9:20 PM 46.4 °F 42.4 °F 42.8 °F 87% 29.36 in 6.2 mi NE 8.1 mph - N/A   Mostly Cloudy
9:50 PM 46.4 °F 42.4 °F 44.6 °F 93% 29.36 in 6.2 mi NNE 8.1 mph - N/A   Mostly Cloudy
10:20 PM 46.4 °F 41.9 °F 42.8 °F 87% 29.39 in 6.2 mi NNE 9.2 mph - N/A   Overcast
10:50 PM 46.4 °F 45.2 °F 42.8 °F 87% 29.39 in 6.2 mi NNW 3.5 mph - N/A   Overcast
11:20 PM 46.4 °F 43.5 °F 42.8 °F 87% 29.39 in 6.2 mi NNW 5.8 mph - N/A   Mostly Cloudy
11:50 PM 46.4 °F 42.9 °F 42.8 °F 87% 29.39 in 6.2 mi North 6.9 mph - N/A   Mostly Cloudy